Regional Weather Roundup
Issued by NWS Sioux Falls, SD

Home | Current Version | Previous Version | Text Only | Print | Product List | Glossary On
Versions: 1 2 3 4 5 6 7 8 9 10 11 12 13 14 15 16 17 18 19 20 21 22 23 24 25 26 27 28 29 30 31 32 33 34 35 36 37 38 39 40 41 42 43 44 45 46 47 48 49 50
591
ASUS43 KFSD 241510
RWRFSD

WEATHER ROUNDUP FOR SE SOUTH DAKOTA/SW MINNESOTA/NW IOWA
NATIONAL WEATHER SERVICE SIOUX FALLS SD
1000 AM CDT TUE MAY 24 2016

NOTE: "FAIR" INDICATES FEW OR NO CLOUDS BELOW 12,000 FEET WITH NO
SIGNIFICANT WEATHER AND OR OBSTRUCTIONS TO VISIBILITY.


SDZ038>040-050-052>070-241600-
SOUTHEAST SOUTH DAKOTA

CITY           SKY/WX    TMP DP  RH WIND       PRES   REMARKS
BROOKINGS      CLOUDY    63  61  93 MISG      29.86F
CHAMBERLAIN    SUNNY     68  52  55 W6        29.86R
HURON          SUNNY     67  57  70 CALM      29.85R
MADISON        PTSUNNY   63  63 100 S6        29.86S
MITCHELL       SUNNY     70  56  61 CALM      29.85R
SIOUX FALLS    MOSUNNY   68  60  75 SW5       29.86R
WINNER         FAIR      66  43  43 SW7       29.88R
YANKTON        CLOUDY    66  57  72 CALM      29.84R
$$

MNZ071-072-080-081-089-090-097-098-241600-
SOUTHWEST MINNESOTA

CITY           SKY/WX    TMP DP  RH WIND       PRES   REMARKS
FAIRMONT       MOSUNNY   70  61  73 SW12      29.88S
JACKSON        PTSUNNY   70  59  68 SW9       29.89S
LUVERNE        CLOUDY    68  59  73 SW10      29.88R
MARSHALL       CLOUDY    69  61  75 NW6       29.87S
MONTEVIDEO     SUNNY     73  64  73 S3        29.86F
PIPESTONE      CLOUDY    66  63  88 SW10      29.87S
REDWOOD FALLS  CLOUDY    70  63  78 W6        29.86S
TRACY          CLOUDY    72  64  78 NW9       29.87R
WINDOM         MOSUNNY   70  61  73 S9        29.87S
WORTHINGTON    MOSUNNY   65  62  90 S16       29.89R
$$

IAZ001>003-012>014-020>022-031-032-NEZ013-014-SDZ071-241600-
NORTHWEST IOWA

CITY           SKY/WX    TMP DP  RH WIND       PRES   REMARKS
CHEROKEE       PTSUNNY   67  64  89 SW9       29.89S
DENISON        PTSUNNY   66  63  88 SW3       29.88S
ESTHERVILLE    MOSUNNY   68  62  81 SW12      29.88S
LE MARS        CLOUDY    66  63  88 S10       29.88F
ORANGE CITY    CLOUDY    64  63  94 S9        29.88S FOG
SHELDON        CLOUDY    64  64 100 S12       29.88R
SIOUX CITY     CLOUDY    66  61  84 SE5       29.88S
SPENCER        CLOUDY    69  61  75 SW12      29.89S
STORM LAKE     CLOUDY    68  63  83 SW14      29.90S
$$

ABBREVIATIONS USED IN REMARKS
   TC - TEMPERATURE IN CELSIUS
  WCI - WIND CHILL INDEX
   HX - HEAT INDEX
  VSB - VISIBILITY





USA.gov is the U.S. government's official web portal to all federal, state and local government web resources and services.